Airfield :
LOGIN :

Register | Disclaimer

   EN    FR    IT 

 










Legend :    VFR   Marginal VFR   IFR   Intensive IFR   Very Intensive IFR
Visi :
Ceiling :
>= 8 km
>= 3000ft
5 to 8 km
1000 to 3000 ft
1500m to 5 km
500 to 1000 ft
800 to 1500m
200 to 500 ft
< 800m
< 200 ft
Symbols :   Thunderstorms  Fog  Heavy snow  Heavy precipitations  Wind > 20 kt
SIGMETs :     Misc.  Thunderstorms  Icing  Turbulence  Mountain Waves  Volcanic Ashes







- Airport Elevation : 1516 ft
- IATA code : AGB


EDMA - Augsburg

CURRENT METAR :
  • 251450Z 05005KT 360V090 CAVOK 12/01 Q1037

EXPIRED METARs :
  • 251420Z 01006KT 310V050 CAVOK 12/01 Q1037
  • 251350Z 03006KT 330V080 CAVOK 12/01 Q1037
  • 251320Z 04008KT 010V100 CAVOK 12/00 Q1037
  • 251250Z 03007KT 330V070 CAVOK 12/02 Q1037
  • 251220Z 05007KT 010V090 CAVOK 12/03 Q1037

TAF TAF EDMA
Valid from the 25 at 15:00 until the 26 at 00:00 UTC


251400Z 2515/2524 03008KT CAVOK
BECMG 2516/2518 09003KT
No reported NOTAMs for that airfield.



MET'MAP, your aeronautical weather chart ! - Copyright ORBIFLY December 2007 - Disclaimer

ORBIFLY MET'MAP TEAM :

Programming & Development : Alexandra Zaïnal
Concept & Development : Baudouin d'Aumeries
Co-Development & Prog : Marc-Olivier Méhu
Technical & hardware support : Manuel Goepfert

Contact : metmap@orbifly.com




SOURCES & CREDITS :

   NOAA